Time,TemperatureF,DewpointF,PressureIn,WindDirection,WindDirectionDegrees,WindSpeedMPH,WindSpeedGustMPH,Humidity,HourlyPrecipIn,Conditions,Clouds,dailyrainin,SolarRadiationWatts/m^2,SoftwareType,DateUTC
2015-03-30 00:04:00,36.5,33.0,30.31,SSW,194,0.0,0.0,87,0.00,CLR,,0.00,0.0,WeatherDisplay:10.37,2015-03-30 04:04:00,
2015-03-30 00:09:00,36.4,33.2,30.31,SSW,194,0.0,0.0,88,0.00,CLR,,0.00,0.0,WeatherDisplay:10.37,2015-03-30 04:09:00,
2015-03-30 00:14:00,36.0,32.8,30.31,SSW,194,0.0,0.0,88,0.00,CLR,,0.00,0.0,WeatherDisplay:10.37,2015-03-30 04:14:00,
2015-03-30 00:19:00,35.8,32.6,30.31,SSW,194,0.0,0.0,88,0.00,CLR,,0.00,0.0,WeatherDisplay:10.37,2015-03-30 04:19:00,
2015-03-30 00:24:00,35.7,32.5,30.31,SSW,194,0.0,0.0,88,0.00,CLR,,0.00,0.0,WeatherDisplay:10.37,2015-03-30 04:24:00,
2015-03-30 00:29:00,35.5,32.3,30.30,SSW,194,0.0,0.0,88,0.00,CLR,,0.00,0.0,WeatherDisplay:10.37,2015-03-30 04:29:00,
2015-03-30 00:34:00,35.3,32.1,30.30,SSW,194,0.0,0.0,88,0.00,CLR,,0.00,0.0,WeatherDisplay:10.37,2015-03-30 04:34:00,
2015-03-30 00:39:00,35.3,32.4,30.31,SSW,194,0.0,0.0,89,0.00,CLR,,0.00,0.0,WeatherDisplay:10.37,2015-03-30 04:39:00,
2015-03-30 00:44:00,35.2,32.3,30.30,SSW,194,0.0,0.0,89,0.00,CLR,,0.00,0.0,WeatherDisplay:10.37,2015-03-30 04:44:00,
2015-03-30 00:50:00,35.0,32.1,30.30,SSW,194,0.0,0.0,89,0.00,CLR,,0.00,0.0,WeatherDisplay:10.37,2015-03-30 04:50:00,
2015-03-30 00:55:00,34.9,32.3,30.30,SSW,194,0.0,0.0,90,0.00,CLR,,0.00,0.0,WeatherDisplay:10.37,2015-03-30 04:55:00,
2015-03-30 01:00:00,34.5,31.9,30.30,SSW,194,0.0,0.0,90,0.00,CLR,,0.00,0.0,WeatherDisplay:10.37,2015-03-30 05:00:00,
2015-03-30 01:05:00,34.7,32.3,30.29,SSW,194,0.0,0.0,91,0.00,CLR,,0.00,0.0,WeatherDisplay:10.37,2015-03-30 05:05:00,
2015-03-30 01:10:00,34.8,32.4,30.29,SSW,194,0.0,0.0,91,0.00,CLR,,0.00,0.0,WeatherDisplay:10.37,2015-03-30 05:10:00,
2015-03-30 01:15:00,34.9,32.5,30.29,SSW,194,0.0,0.0,91,0.00,CLR,,0.00,0.0,WeatherDisplay:10.37,2015-03-30 05:15:00,
2015-03-30 01:20:00,35.0,32.6,30.29,SSW,194,0.0,0.0,91,0.00,CLR,,0.00,0.0,WeatherDisplay:10.37,2015-03-30 05:20:00,
2015-03-30 01:25:00,35.1,32.7,30.29,SSW,194,0.0,0.0,91,0.00,CLR,,0.00,0.0,WeatherDisplay:10.37,2015-03-30 05:25:00,
2015-03-30 01:30:00,35.1,32.7,30.28,SSW,194,0.0,0.0,91,0.00,CLR,,0.00,0.0,WeatherDisplay:10.37,2015-03-30 05:30:00,
2015-03-30 01:35:00,35.0,32.6,30.28,South,186,0.0,0.0,91,0.00,CLR,,0.00,0.0,WeatherDisplay:10.37,2015-03-30 05:35:00,
2015-03-30 01:40:00,35.0,32.6,30.28,South,184,0.0,0.0,91,0.00,CLR,,0.00,0.0,WeatherDisplay:10.37,2015-03-30 05:40:00,
2015-03-30 01:45:00,35.1,32.7,30.28,SSW,196,0.0,0.0,91,0.00,CLR,,0.00,0.0,WeatherDisplay:10.37,2015-03-30 05:45:00,
2015-03-30 01:50:00,35.3,32.9,30.27,SSW,196,0.0,0.0,91,0.00,CLR,,0.00,0.0,WeatherDisplay:10.37,2015-03-30 05:50:00,
2015-03-30 01:55:00,36.0,33.6,30.27,South,173,0.0,0.0,91,0.00,CLR,,0.00,0.0,WeatherDisplay:10.37,2015-03-30 05:55:00,
2015-03-30 02:00:00,36.3,33.9,30.26,South,178,0.0,0.0,91,0.00,CLR,,0.00,0.0,WeatherDisplay:10.37,2015-03-30 06:00:00,
2015-03-30 02:05:00,37.0,34.3,30.26,South,175,0.0,0.0,90,0.00,CLR,,0.00,0.0,WeatherDisplay:10.37,2015-03-30 06:05:00,
2015-03-30 02:10:00,37.3,34.4,30.26,South,188,0.0,0.0,89,0.00,CLR,,0.00,0.0,WeatherDisplay:10.37,2015-03-30 06:10:00,
2015-03-30 02:15:00,37.5,34.3,30.26,South,178,0.0,0.0,88,0.00,CLR,,0.00,0.0,WeatherDisplay:10.37,2015-03-30 06:15:00,
2015-03-30 02:20:00,37.5,34.3,30.26,SSW,208,1.2,0.0,88,0.00,CLR,,0.00,0.0,WeatherDisplay:10.37,2015-03-30 06:20:00,
2015-03-30 02:25:00,37.7,34.2,30.25,South,185,0.0,0.0,87,0.00,CLR,,0.00,0.0,WeatherDisplay:10.37,2015-03-30 06:25:00,
2015-03-30 02:30:00,38.1,34.3,30.25,South,179,0.0,0.2,86,0.00,CLR,,0.00,0.0,WeatherDisplay:10.37,2015-03-30 06:30:00,
2015-03-30 02:35:00,38.4,34.3,30.25,South,178,0.0,0.0,85,0.00,CLR,,0.00,0.0,WeatherDisplay:10.37,2015-03-30 06:35:00,
2015-03-30 02:40:00,38.6,34.5,30.24,South,181,0.0,0.0,85,0.00,CLR,,0.00,0.0,WeatherDisplay:10.37,2015-03-30 06:40:00,
2015-03-30 02:45:00,38.6,34.5,30.24,SSW,192,0.0,0.0,85,0.00,CLR,,0.00,0.0,WeatherDisplay:10.37,2015-03-30 06:45:00,
2015-03-30 02:50:00,38.4,34.3,30.24,SW,223,2.3,2.3,85,0.00,CLR,,0.00,0.0,WeatherDisplay:10.37,2015-03-30 06:50:00,
2015-03-30 02:55:00,38.2,34.1,30.24,SW,222,0.0,0.0,85,0.00,CLR,,0.00,0.0,WeatherDisplay:10.37,2015-03-30 06:55:00,
2015-03-30 03:00:00,38.0,33.9,30.24,SW,221,0.0,0.0,85,0.00,CLR,,0.00,0.0,WeatherDisplay:10.37,2015-03-30 07:00:00,
2015-03-30 03:05:00,38.1,34.0,30.24,SSE,165,0.0,0.0,85,0.00,CLR,,0.00,0.0,WeatherDisplay:10.37,2015-03-30 07:05:00,
2015-03-30 03:10:00,38.2,34.4,30.24,SSE,165,0.0,0.0,86,0.00,CLR,,0.00,0.0,WeatherDisplay:10.37,2015-03-30 07:10:00,
2015-03-30 03:15:00,38.0,34.2,30.23,SSE,165,0.0,0.0,86,0.00,CLR,,0.00,0.0,WeatherDisplay:10.37,2015-03-30 07:15:00,
2015-03-30 03:20:00,37.7,33.9,30.23,SSE,165,0.0,0.0,86,0.00,CLR,,0.00,0.0,WeatherDisplay:10.37,2015-03-30 07:20:00,
2015-03-30 03:25:00,37.4,33.9,30.24,SSE,165,0.0,0.0,87,0.00,CLR,,0.00,0.0,WeatherDisplay:10.37,2015-03-30 07:25:00,
2015-03-30 03:30:00,37.1,33.6,30.24,SSE,165,0.0,0.0,87,0.00,CLR,,0.00,0.0,WeatherDisplay:10.37,2015-03-30 07:30:00,
2015-03-30 03:35:00,37.0,33.8,30.23,South,188,0.0,0.0,88,0.00,CLR,,0.00,0.0,WeatherDisplay:10.37,2015-03-30 07:35:00,
2015-03-30 03:40:00,36.7,33.8,30.23,South,188,0.0,0.0,89,0.00,CLR,,0.00,0.0,WeatherDisplay:10.37,2015-03-30 07:40:00,
2015-03-30 03:45:00,36.5,33.6,30.23,South,188,0.0,0.0,89,0.00,CLR,,0.00,0.0,WeatherDisplay:10.37,2015-03-30 07:45:00,
2015-03-30 03:50:00,36.2,33.3,30.23,South,188,0.0,0.0,89,0.00,CLR,,0.00,0.0,WeatherDisplay:10.37,2015-03-30 07:50:00,
2015-03-30 03:55:00,36.2,33.5,30.23,ESE,119,0.0,0.0,90,0.00,CLR,,0.00,0.0,WeatherDisplay:10.37,2015-03-30 07:55:00,
2015-03-30 04:00:00,36.4,33.7,30.22,ESE,119,0.0,0.0,90,0.00,CLR,,0.00,0.0,WeatherDisplay:10.37,2015-03-30 08:00:00,
2015-03-30 04:05:00,36.7,34.0,30.22,ESE,119,0.0,0.0,90,0.00,CLR,,0.00,0.0,WeatherDisplay:10.37,2015-03-30 08:05:00,
2015-03-30 04:10:00,36.6,33.7,30.22,ESE,119,0.0,0.0,89,0.00,CLR,,0.00,0.0,WeatherDisplay:10.37,2015-03-30 08:10:00,
2015-03-30 04:15:00,36.2,33.5,30.22,ESE,119,0.0,0.0,90,0.00,CLR,,0.00,0.0,WeatherDisplay:10.37,2015-03-30 08:15:00,
2015-03-30 04:20:00,36.2,33.8,30.22,ESE,119,0.0,0.0,91,0.00,CLR,,0.00,0.0,WeatherDisplay:10.37,2015-03-30 08:20:00,
2015-03-30 04:25:00,36.1,33.7,30.21,ESE,119,0.0,0.0,91,0.00,CLR,,0.00,0.0,WeatherDisplay:10.37,2015-03-30 08:25:00,
2015-03-30 04:30:00,36.0,33.6,30.21,ESE,119,0.0,0.0,91,0.00,CLR,,0.00,0.0,WeatherDisplay:10.37,2015-03-30 08:30:00,
2015-03-30 04:35:00,36.0,33.6,30.20,ESE,119,0.0,0.0,91,0.00,CLR,,0.00,0.0,WeatherDisplay:10.37,2015-03-30 08:35:00,
2015-03-30 04:40:00,36.1,33.7,30.21,SSW,213,0.0,0.0,91,0.00,CLR,,0.00,0.0,WeatherDisplay:10.37,2015-03-30 08:40:00,
2015-03-30 04:45:00,36.4,34.3,30.21,SSW,211,0.0,0.0,92,0.00,CLR,,0.00,0.0,WeatherDisplay:10.37,2015-03-30 08:45:00,
2015-03-30 04:50:00,36.7,34.3,30.21,SSW,211,0.0,0.0,91,0.00,CLR,,0.00,0.0,WeatherDisplay:10.37,2015-03-30 08:50:00,
2015-03-30 04:55:00,36.9,34.5,30.21,SSW,210,0.0,0.0,91,0.00,CLR,,0.00,0.0,WeatherDisplay:10.37,2015-03-30 08:55:00,
2015-03-30 05:00:00,37.0,34.3,30.21,SW,219,0.0,0.0,90,0.00,CLR,,0.00,0.0,WeatherDisplay:10.37,2015-03-30 09:00:00,
2015-03-30 05:05:00,37.4,34.7,30.21,SSW,193,0.0,0.0,90,0.00,CLR,,0.00,0.0,WeatherDisplay:10.37,2015-03-30 09:05:00,
2015-03-30 05:10:00,37.4,34.5,30.21,SSW,193,0.0,0.0,89,0.00,CLR,,0.00,0.0,WeatherDisplay:10.37,2015-03-30 09:10:00,
2015-03-30 05:15:00,37.4,34.7,30.20,SSW,193,0.0,0.0,90,0.00,CLR,,0.00,0.0,WeatherDisplay:10.37,2015-03-30 09:15:00,
2015-03-30 05:20:00,37.5,34.8,30.20,SSW,193,0.0,0.0,90,0.00,CLR,,0.00,0.0,WeatherDisplay:10.37,2015-03-30 09:20:00,
2015-03-30 05:25:00,37.6,34.7,30.20,SSW,193,0.0,0.0,89,0.00,CLR,,0.00,0.0,WeatherDisplay:10.37,2015-03-30 09:25:00,
2015-03-30 05:30:00,37.5,34.6,30.20,SSW,193,0.0,0.0,89,0.00,CLR,,0.00,0.0,WeatherDisplay:10.37,2015-03-30 09:30:00,
2015-03-30 05:35:00,37.5,34.6,30.20,SSW,193,0.0,0.0,89,0.00,CLR,,0.00,0.0,WeatherDisplay:10.37,2015-03-30 09:35:00,
2015-03-30 05:40:00,38.0,35.0,30.20,South,189,1.2,0.0,89,0.00,CLR,,0.00,0.0,WeatherDisplay:10.37,2015-03-30 09:40:00,
2015-03-30 05:45:00,38.2,35.0,30.20,SW,217,0.0,0.0,88,0.00,CLR,,0.00,0.0,WeatherDisplay:10.37,2015-03-30 09:45:00,
2015-03-30 05:50:00,38.6,35.4,30.19,South,182,0.0,0.0,88,0.00,CLR,,0.00,0.0,WeatherDisplay:10.37,2015-03-30 09:50:00,
2015-03-30 05:55:00,39.3,35.5,30.18,South,184,3.0,3.0,86,0.00,CLR,,0.00,0.0,WeatherDisplay:10.37,2015-03-30 09:55:00,
2015-03-30 06:00:00,39.2,35.1,30.19,SW,228,0.0,0.0,85,0.00,CLR,,0.00,0.0,WeatherDisplay:10.37,2015-03-30 10:00:00,
2015-03-30 06:05:00,39.4,35.3,30.19,SSW,208,2.3,2.3,85,0.00,CLR,,0.00,0.0,WeatherDisplay:10.37,2015-03-30 10:05:00,
2015-03-30 06:10:00,40.0,35.9,30.18,SW,219,1.0,0.0,85,0.00,CLR,,0.00,0.0,WeatherDisplay:10.37,2015-03-30 10:10:00,
2015-03-30 06:16:00,40.4,35.9,30.18,SSW,204,3.5,3.5,84,0.00,CLR,,0.00,0.0,WeatherDisplay:10.37,2015-03-30 10:16:00,
2015-03-30 06:21:00,41.0,35.9,30.18,SSW,198,5.8,5.8,82,0.00,CLR,,0.00,0.0,WeatherDisplay:10.37,2015-03-30 10:21:00,
2015-03-30 06:26:00,41.1,36.0,30.18,SSW,209,2.0,2.0,82,0.00,CLR,,0.00,0.0,WeatherDisplay:10.37,2015-03-30 10:26:00,
2015-03-30 06:31:00,41.1,36.0,30.18,South,180,3.5,3.5,82,0.00,CLR,,0.00,0.0,WeatherDisplay:10.37,2015-03-30 10:31:00,
2015-03-30 06:36:00,41.3,36.2,30.18,South,180,1.2,0.0,82,0.00,CLR,,0.00,0.0,WeatherDisplay:10.37,2015-03-30 10:36:00,
2015-03-30 06:41:00,41.2,36.1,30.18,SSE,148,4.6,4.6,82,0.00,CLR,,0.00,0.0,WeatherDisplay:10.37,2015-03-30 10:41:00,
2015-03-30 06:46:00,41.1,36.0,30.18,South,176,0.0,0.0,82,0.00,CLR,,0.00,0.0,WeatherDisplay:10.37,2015-03-30 10:46:00,
2015-03-30 06:51:00,41.2,36.1,30.18,SW,223,0.0,0.0,82,0.00,CLR,,0.00,0.0,WeatherDisplay:10.37,2015-03-30 10:51:00,
2015-03-30 06:56:00,41.1,36.3,30.18,SSE,168,0.0,0.0,83,0.00,CLR,,0.00,0.0,WeatherDisplay:10.37,2015-03-30 10:56:00,
2015-03-30 07:01:00,41.1,36.3,30.18,South,184,0.0,0.0,83,0.00,FEW,,0.00,0.0,WeatherDisplay:10.37,2015-03-30 11:01:00,
2015-03-30 07:06:00,41.3,36.5,30.18,SSW,205,1.2,1.2,83,0.00,FEW,,0.00,0.0,WeatherDisplay:10.37,2015-03-30 11:06:00,
2015-03-30 07:11:00,41.6,36.8,30.18,South,182,1.2,1.2,83,0.00,FEW,,0.00,5.0,WeatherDisplay:10.37,2015-03-30 11:11:00,
2015-03-30 07:16:00,41.7,36.6,30.18,SSW,206,0.0,0.0,82,0.00,FEW,,0.00,9.0,WeatherDisplay:10.37,2015-03-30 11:16:00,
2015-03-30 07:21:00,41.9,36.8,30.18,SW,221,0.0,0.0,82,0.00,FEW,,0.00,14.0,WeatherDisplay:10.37,2015-03-30 11:21:00,
2015-03-30 07:26:00,42.1,37.0,30.18,SSW,194,2.3,2.3,82,0.00,FEW,,0.00,21.0,WeatherDisplay:10.37,2015-03-30 11:26:00,
2015-03-30 07:31:00,42.4,37.3,30.18,South,181,2.3,2.3,82,0.00,FEW,,0.00,37.0,WeatherDisplay:10.37,2015-03-30 11:31:00,
2015-03-30 07:36:00,43.0,37.9,30.18,South,179,3.5,3.5,82,0.00,FEW,,0.00,65.0,WeatherDisplay:10.37,2015-03-30 11:36:00,
2015-03-30 07:41:00,43.6,38.5,30.18,SSE,154,0.0,0.0,82,0.00,FEW,,0.00,76.0,WeatherDisplay:10.37,2015-03-30 11:41:00,
2015-03-30 07:46:00,44.3,38.8,30.18,South,175,2.3,0.0,81,0.00,FEW,,0.00,86.0,WeatherDisplay:10.37,2015-03-30 11:46:00,
2015-03-30 07:51:00,45.0,39.5,30.18,South,177,2.3,2.3,81,0.00,FEW,,0.00,72.0,WeatherDisplay:10.37,2015-03-30 11:51:00,
2015-03-30 07:56:00,45.4,39.3,30.17,SW,225,3.5,3.5,79,0.00,FEW,,0.00,47.0,WeatherDisplay:10.37,2015-03-30 11:56:00,
2015-03-30 08:01:00,45.6,39.1,30.17,SSW,200,4.6,4.6,78,0.00,FEW,,0.00,60.0,WeatherDisplay:10.37,2015-03-30 12:01:00,
2015-03-30 08:06:00,46.0,39.9,30.17,SSE,162,2.3,2.3,79,0.00,FEW,,0.00,81.0,WeatherDisplay:10.37,2015-03-30 12:06:00,
2015-03-30 08:11:00,46.4,39.6,30.17,SSW,207,1.2,0.0,77,0.00,FEW,,0.00,83.0,WeatherDisplay:10.37,2015-03-30 12:11:00,
2015-03-30 08:16:00,46.8,40.3,30.17,SSW,196,0.0,0.4,78,0.00,CLR,,0.00,97.0,WeatherDisplay:10.37,2015-03-30 12:16:00,
2015-03-30 08:21:00,47.1,39.9,30.17,South,190,5.8,5.8,76,0.00,CLR,,0.00,102.0,WeatherDisplay:10.37,2015-03-30 12:21:00,
2015-03-30 08:26:00,47.4,40.2,30.17,South,169,5.8,5.8,76,0.00,CLR,,0.00,72.0,WeatherDisplay:10.37,2015-03-30 12:26:00,
2015-03-30 08:31:00,47.5,40.6,30.17,SSW,201,3.5,3.5,77,0.00,CLR,,0.00,90.0,WeatherDisplay:10.37,2015-03-30 12:31:00,
2015-03-30 08:36:00,47.7,40.5,30.17,WNW,287,3.5,3.5,76,0.00,CLR,,0.00,165.0,WeatherDisplay:10.37,2015-03-30 12:36:00,
2015-03-30 08:41:00,48.9,41.3,30.17,SSW,213,4.6,4.6,75,0.00,CLR,,0.00,288.0,WeatherDisplay:10.37,2015-03-30 12:41:00,
2015-03-30 08:46:00,49.4,41.8,30.17,SSE,165,3.5,0.0,75,0.00,CLR,,0.00,246.0,WeatherDisplay:10.37,2015-03-30 12:46:00,
2015-03-30 08:51:00,49.2,41.3,30.17,South,190,3.5,3.5,74,0.00,CLR,,0.00,137.0,WeatherDisplay:10.37,2015-03-30 12:51:00,
2015-03-30 08:56:00,49.3,41.4,30.18,South,180,3.5,3.5,74,0.00,CLR,,0.00,156.0,WeatherDisplay:10.37,2015-03-30 12:56:00,
2015-03-30 09:01:00,49.7,41.4,30.18,WSW,252,8.0,8.0,73,0.00,SCT,,0.00,116.0,WeatherDisplay:10.37,2015-03-30 13:01:00,
2015-03-30 09:06:00,49.9,41.9,30.18,SW,218,5.0,5.0,74,0.00,SCT,,0.00,137.0,WeatherDisplay:10.37,2015-03-30 13:06:00,
2015-03-30 09:11:00,50.1,41.8,30.17,South,174,2.0,2.0,73,0.00,SCT,,0.00,123.0,WeatherDisplay:10.37,2015-03-30 13:11:00,
2015-03-30 09:16:00,50.3,42.0,30.17,SW,221,3.5,3.5,73,0.00,SCT,,0.00,127.0,WeatherDisplay:10.37,2015-03-30 13:16:00,
2015-03-30 09:21:00,50.6,41.9,30.17,SSW,207,2.3,2.3,72,0.00,SCT,,0.00,130.0,WeatherDisplay:10.37,2015-03-30 13:21:00,
2015-03-30 09:26:00,50.8,42.1,30.17,SSW,200,3.0,3.0,72,0.00,SCT,,0.00,134.0,WeatherDisplay:10.37,2015-03-30 13:26:00,
2015-03-30 09:31:00,50.9,42.2,30.17,SSE,152,3.5,3.5,72,0.00,SCT,,0.00,111.0,WeatherDisplay:10.37,2015-03-30 13:31:00,
2015-03-30 09:36:00,51.1,42.7,30.16,SSW,195,3.5,3.5,73,0.00,SCT,,0.00,97.0,WeatherDisplay:10.37,2015-03-30 13:36:00,
2015-03-30 09:41:00,51.3,42.6,30.16,South,180,3.5,3.5,72,0.00,SCT,,0.00,142.0,WeatherDisplay:10.37,2015-03-30 13:41:00,
2015-03-30 09:46:00,51.6,42.9,30.15,SW,236,5.8,5.8,72,0.00,SCT,,0.00,109.0,WeatherDisplay:10.37,2015-03-30 13:46:00,
2015-03-30 09:51:00,51.8,42.7,30.15,SSW,198,3.5,3.5,71,0.00,SCT,,0.00,104.0,WeatherDisplay:10.37,2015-03-30 13:51:00,
2015-03-30 09:56:00,52.1,43.3,30.16,ESE,120,0.0,0.0,72,0.00,SCT,,0.00,84.0,WeatherDisplay:10.37,2015-03-30 13:56:00,
2015-03-30 10:01:00,52.2,43.1,30.17,WNW,298,3.5,3.5,71,0.00,BKN,,0.00,39.0,WeatherDisplay:10.37,2015-03-30 14:01:00,
2015-03-30 10:06:00,52.3,42.8,30.16,SSW,193,3.5,3.5,70,0.00,BKN,,0.00,69.0,WeatherDisplay:10.37,2015-03-30 14:06:00,
2015-03-30 10:11:00,52.4,43.3,30.16,SSW,194,0.0,0.0,71,0.00,BKN,,0.00,44.0,WeatherDisplay:10.37,2015-03-30 14:11:00,
2015-03-30 10:16:00,52.5,43.0,30.16,South,172,4.6,4.6,70,0.00,BKN,,0.00,39.0,WeatherDisplay:10.37,2015-03-30 14:16:00,
2015-03-30 10:21:00,52.6,43.1,30.16,SSW,208,2.3,0.0,70,0.00,BKN,,0.00,49.0,WeatherDisplay:10.37,2015-03-30 14:21:00,
2015-03-30 10:26:00,52.8,42.9,30.16,South,185,1.2,0.0,69,0.00,BKN,,0.00,54.0,WeatherDisplay:10.37,2015-03-30 14:26:00,
2015-03-30 10:31:00,53.0,43.1,30.15,South,186,1.2,0.0,69,0.00,BKN,,0.00,51.0,WeatherDisplay:10.37,2015-03-30 14:31:00,
2015-03-30 10:36:00,53.1,43.2,30.14,South,186,4.0,4.0,69,0.00,BKN,,0.00,76.0,WeatherDisplay:10.37,2015-03-30 14:36:00,
2015-03-30 10:41:00,53.3,43.0,30.14,SW,221,9.2,9.2,68,0.00,BKN,,0.00,84.0,WeatherDisplay:10.37,2015-03-30 14:41:00,
2015-03-30 10:46:00,53.5,43.2,30.13,WSW,244,7.0,7.0,68,0.00,BKN,,0.00,83.0,WeatherDisplay:10.37,2015-03-30 14:46:00,
2015-03-30 10:51:00,53.7,44.1,30.13,SSE,167,2.3,2.3,70,0.00,BKN,,0.00,172.0,WeatherDisplay:10.37,2015-03-30 14:51:00,
2015-03-30 10:56:00,54.3,43.6,30.13,South,171,3.5,3.5,67,0.00,BKN,,0.00,220.0,WeatherDisplay:10.37,2015-03-30 14:56:00,
2015-03-30 11:01:00,54.8,43.7,30.13,South,179,2.3,0.0,66,0.00,-RA,,0.00,151.0,WeatherDisplay:10.37,2015-03-30 15:01:00,
2015-03-30 11:06:00,54.8,43.7,30.12,South,181,2.3,2.3,66,0.00,-RA,,0.00,97.0,WeatherDisplay:10.37,2015-03-30 15:06:00,
2015-03-30 11:11:00,54.8,43.7,30.12,South,174,3.5,3.5,66,0.00,-RA,,0.00,104.0,WeatherDisplay:10.37,2015-03-30 15:11:00,
2015-03-30 11:17:00,54.8,43.7,30.12,SW,218,5.8,5.8,66,0.00,-RA,,0.00,148.0,WeatherDisplay:10.37,2015-03-30 15:17:00,
2015-03-30 11:22:00,55.0,43.4,30.12,SSE,165,1.2,1.2,65,0.00,-RA,,0.00,79.0,WeatherDisplay:10.37,2015-03-30 15:22:00,
2015-03-30 11:27:00,54.2,45.0,30.11,WSW,251,4.0,4.0,71,0.00,-RA,,0.00,148.0,WeatherDisplay:10.37,2015-03-30 15:27:00,
2015-03-30 11:32:00,54.1,45.3,30.11,SW,214,3.5,3.5,72,0.00,-RA,,0.00,204.0,WeatherDisplay:10.37,2015-03-30 15:32:00,
2015-03-30 11:37:00,55.1,44.7,30.11,South,190,3.5,3.5,68,0.00,-RA,,0.00,269.0,WeatherDisplay:10.37,2015-03-30 15:37:00,
2015-03-30 11:42:00,56.1,44.9,30.10,West,270,0.0,0.0,66,0.00,-RA,,0.00,320.0,WeatherDisplay:10.37,2015-03-30 15:42:00,
2015-03-30 11:47:00,56.9,45.7,30.11,WSW,244,3.5,3.5,66,0.00,-RA,,0.00,311.0,WeatherDisplay:10.37,2015-03-30 15:47:00,
2015-03-30 11:52:00,57.5,44.6,30.10,SE,124,9.2,9.2,62,0.00,-RA,,0.00,350.0,WeatherDisplay:10.37,2015-03-30 15:52:00,
2015-03-30 11:57:00,58.2,45.7,30.11,South,176,2.3,2.3,63,0.00,-RA,,0.00,392.0,WeatherDisplay:10.37,2015-03-30 15:57:00,
2015-03-30 12:02:00,58.6,44.3,30.10,SSW,210,3.5,3.5,59,0.00,OVC,,0.00,327.0,WeatherDisplay:10.37,2015-03-30 16:02:00,
2015-03-30 12:07:00,59.0,45.1,30.10,WSW,244,9.2,9.2,60,0.00,OVC,,0.00,454.0,WeatherDisplay:10.37,2015-03-30 16:07:00,
2015-03-30 12:12:00,59.1,44.8,30.10,SW,231,8.1,8.1,59,0.00,OVC,,0.00,223.0,WeatherDisplay:10.37,2015-03-30 16:12:00,
2015-03-30 12:17:00,58.2,43.9,30.10,South,182,6.9,6.9,59,0.00,OVC,,0.00,113.0,WeatherDisplay:10.37,2015-03-30 16:17:00,
2015-03-30 12:22:00,57.3,44.4,30.10,SW,231,9.2,9.2,62,0.00,OVC,,0.00,98.0,WeatherDisplay:10.37,2015-03-30 16:22:00,